Probability
68 65 61 58 55 58 65 65 74 68 74 58 55 58 58 58 58 74 61 61 61 52 61 26 45 35 32 29 19 26 26 23 26 23 19 16 13 13 39 32 39 23 32
68 65 65 55 52 65 58 58 65 65 52 55 71 61 58 55 48 52 61 61 55 58 35 35 29 35 39 32 29 29 19 19 16 16 16 6 6 19 6 23 23 19 29
65 65 58 52 52 52 61 48 58 52 52 61 61 48 55 55 39 45 52 45 52 55 39 26 26 26 23 26 42 35 32 19 16 13 6 10 6 6 0 10 10 19 19
71 65 65 58 55 58 65 61 61 58 68 71 45 35 35 35 45 48 42 45 42 35 29 29 32 39 26 29 23 10 16 23 10 13 16 13 6 6 16 10 3 6 13
77 68 65 61 61 58 61 65 65 68 65 58 58 52 35 45 42 35 42 48 45 32 29 26 29 35 35 19 16 13 19 10 16 13 3 3 3 0 16 10 6 3 0
71 68 65 65 65 58 55 58 61 68 61 48 45 48 45 39 35 48 39 45 48 48 32 26 29 32 19 26 26 23 19 23 23 19 6 13 6 10 6 3 3 10 3
77 68 65 68 65 55 52 52 58 65 65 52 42 45 42 39 42 29 39 42 35 39 35 23 29 29 32 29 19 29 16 19 29 23 10 6 3 6 3 3 3 3 3
71 71 65 71 65 61 58 52 61 71 68 65 65 58 55 45 45 35 35 39 32 35 29 26 23 23 26 13 23 16 16 19 19 6 13 10 3 6 3 3 3 6 3
71 74 68 68 65 68 65 55 61 71 74 71 74 74 58 52 39 52 42 35 52 19 26 23 23 23 23 19 29 19 19 23 6 3 10 13 10 10 10 6 6 6 3
74 71 68 68 65 61 65 58 65 61 71 71 68 58 65 71 58 55 48 52 52 29 39 29 29 29 35 45 45 23 23 26 16 29 10 10 6 6 3 10 6 10 3
65 71 68 65 61 58 58 61 61 55 61 52 61 58 68 61 68 65 45 45 48 61 45 48 39 35 32 42 48 19 13 13 16 13 10 13 13 13 19 6 6 6 10
68 61 68 68 61 58 55 52 55 45 52 58 65 65 71 55 58 55 48 58 52 48 45 35 32 29 23 26 23 23 13 10 10 6 10 6 3 6 16 23 10 13 10
68 65 65 71 61 58 55 48 52 42 42 52 58 55 65 58 55 45 32 32 45 39 42 42 29 26 29 29 35 19 13 10 6 6 6 6 10 16 16 13 13 13 6
81 61 74 71 65 58 58 55 45 39 39 52 48 58 55 61 58 45 39 39 39 39 42 32 29 26 23 19 16 10 10 10 10 10 10 6 6 10 16 13 23 23 13
81 77 84 84 81 71 68 58 55 45 42 48 52 55 55 55 42 42 39 35 35 29 35 29 23 23 16 16 16 13 3 10 6 6 3 3 0 0 0 0 6 13 16
71 77 74 84 84 77 65 61 61 52 52 48 48 48 48 42 42 39 32 29 29 29 29 23 23 23 10 0 0 0 10 6 3 3 3 0 0 0 0 0 0 0 3
74 74 77 81 84 74 65 58 55 42 35 39 45 39 42 39 35 23 26 23 23 19 19 19 16 19 6 0 0 0 6 3 3 3 3 0 0 0 0 0 0 0 0
61 68 68 71 65 61 55 71 58 48 42 42 42 39 32 29 23 23 19 23 23 16 16 13 13 10 6 0 0 0 0 3 3 6 6 6 0 0 0 0 0 0 0
48 65 61 58 58 55 55 45 48 39 39 35 32 23 23 23 16 16 16 13 13 13 13 10 6 10 6 0 0 0 0 3 3 3 0 0 0 0 0 0 0 0 0
48 55 48 45 45 52 45 39 32 35 39 32 26 19 19 16 13 10 10 13 10 6 6 6 6 6 6 0 0 0 0 3 0 0 0 0 0 0 0 0 0 0 0
35 42 45 39 39 42 45 39 39 29 29 23 19 16 16 13 13 6 6 6 6 6 3 0 0 0 0 0 0 0 0 0 0 3 0 0 0 0 0 0 0 0 0
29 35 42 35 39 39 42 35 32 26 23 16 13 10 10 3 3 3 3 3 3 0 0 0 0 0 0 0 0 0 0 0 0 0 0 0 0 0 0 0 0 0 0
26 32 39 35 32 35 32 26 23 19 13 13 6 6 6 6 3 3 0 0 0 0 0 0 0 0 0 0 0 0 0 0 0 0 0 0 0 0 0 0 0 0 0
23 23 23 23 16 19 26 26 16 13 10 10 6 6 6 3 0 0 0 0 0 0 0 0 0 0 0 0 0 0 0 0 0 0 0 0 0 0 0 0 0 0 0
13 19 19 10 10 10 6 6 6 10 10 6 6 3 3 0 0 0 0 0 0 0 0 0 0 0 0 0 0 0 0 0 0 0 0 0 0 0 0 0 0 0 0
10 6 6 3 3 3 3 3 6 6 6 3 3 0 0 0 0 0 0 0 0 0 0 0 0 0 0 0 0 0 0 0 0 0 0 0 0 0 0 0 0 0 0
Height
5864 5861 5858 5855 5853 5852 5851 5852 5853 5854 5856 5858 5860 5862 5865 5867 5869 5871 5874 5876 5878 5880 5882 5883 5885 5886 5887 5888 5889 5890 5891 5891 5892 5892 5892 5892 5892 5893 5893 5892 5892 5892 5891
5862 5859 5857 5854 5852 5852 5851 5851 5851 5852 5855 5857 5859 5861 5862 5865 5867 5869 5872 5874 5876 5878 5880 5882 5883 5885 5886 5887 5888 5889 5890 5891 5892 5892 5892 5893 5893 5893 5893 5892 5892 5892 5891
5860 5857 5855 5853 5852 5851 5850 5851 5851 5852 5853 5855 5857 5859 5861 5863 5865 5868 5870 5872 5874 5876 5878 5880 5882 5883 5885 5886 5887 5889 5890 5890 5891 5892 5892 5892 5893 5893 5893 5892 5892 5892 5891
5857 5855 5853 5852 5851 5849 5849 5850 5850 5851 5852 5854 5856 5858 5859 5861 5864 5866 5868 5870 5872 5874 5876 5878 5880 5882 5883 5885 5886 5887 5888 5889 5890 5891 5891 5892 5892 5892 5892 5892 5891 5891 5890
5856 5854 5852 5851 5850 5849 5849 5849 5849 5850 5851 5852 5854 5856 5858 5860 5862 5864 5867 5869 5871 5873 5874 5876 5878 5880 5881 5883 5884 5886 5887 5888 5889 5889 5890 5890 5890 5890 5891 5891 5890 5890 5889
5854 5853 5851 5850 5848 5848 5848 5849 5849 5850 5850 5851 5853 5854 5856 5858 5860 5863 5865 5867 5869 5871 5873 5874 5876 5878 5879 5881 5882 5884 5885 5886 5886 5887 5888 5888 5889 5889 5889 5889 5888 5888 5888
5853 5851 5850 5849 5848 5848 5848 5849 5850 5850 5851 5851 5852 5853 5855 5857 5859 5861 5863 5865 5867 5869 5870 5872 5874 5876 5877 5878 5880 5881 5882 5883 5884 5885 5885 5886 5886 5886 5886 5886 5886 5885 5885
5852 5851 5850 5849 5848 5848 5848 5849 5849 5850 5850 5851 5852 5853 5854 5856 5857 5859 5861 5863 5864 5866 5868 5870 5871 5873 5874 5876 5877 5879 5880 5880 5881 5882 5882 5883 5883 5883 5883 5883 5883 5882 5882
5851 5850 5849 5848 5848 5848 5848 5848 5849 5849 5850 5851 5851 5852 5853 5855 5856 5857 5859 5860 5862 5864 5865 5867 5869 5870 5872 5873 5874 5875 5876 5877 5877 5878 5879 5879 5879 5880 5880 5879 5879 5879 5878
5850 5849 5848 5848 5847 5847 5847 5847 5848 5848 5849 5849 5850 5851 5852 5853 5854 5855 5856 5858 5859 5861 5862 5864 5865 5867 5868 5869 5871 5872 5872 5873 5874 5874 5875 5875 5875 5875 5875 5875 5874 5874 5873
5849 5848 5847 5847 5846 5846 5846 5846 5846 5847 5847 5848 5849 5850 5850 5851 5852 5852 5854 5855 5856 5858 5859 5860 5862 5863 5864 5866 5867 5867 5868 5869 5869 5869 5870 5870 5870 5870 5869 5869 5869 5868 5867
5848 5847 5847 5846 5846 5845 5845 5845 5845 5845 5846 5846 5847 5847 5848 5848 5849 5849 5850 5851 5853 5854 5855 5856 5858 5859 5860 5861 5862 5863 5863 5864 5864 5864 5865 5865 5864 5864 5863 5863 5863 5862 5861
5846 5846 5846 5845 5845 5844 5844 5844 5844 5844 5844 5844 5845 5845 5845 5845 5846 5847 5847 5848 5849 5850 5851 5852 5853 5855 5856 5856 5857 5858 5858 5858 5859 5859 5858 5858 5858 5857 5857 5857 5856 5855 5854
5844 5844 5844 5844 5843 5843 5843 5842 5842 5842 5842 5842 5842 5842 5843 5843 5843 5843 5844 5844 5845 5846 5847 5848 5849 5850 5850 5851 5852 5852 5852 5852 5852 5852 5852 5852 5851 5851 5850 5850 5849 5848 5847
5841 5841 5841 5841 5841 5841 5841 5840 5840 5840 5839 5839 5839 5839 5839 5840 5840 5840 5840 5840 5841 5842 5843 5843 5844 5845 5845 5845 5846 5846 5846 5846 5846 5845 5845 5844 5844 5844 5843 5843 5841 5840 5839
5838 5838 5838 5838 5838 5838 5838 5838 5837 5837 5837 5836 5836 5837 5837 5837 5837 5837 5837 5837 5837 5837 5838 5838 5839 5839 5839 5840 5840 5840 5840 5840 5839 5839 5838 5837 5837 5836 5836 5835 5833 5832 5830
5834 5834 5835 5835 5835 5835 5835 5835 5834 5834 5834 5833 5833 5833 5834 5833 5833 5833 5833 5833 5832 5832 5832 5832 5833 5833 5833 5834 5834 5834 5833 5833 5832 5832 5831 5830 5829 5828 5827 5826 5824 5823 5821
5829 5830 5830 5831 5831 5831 5831 5831 5831 5830 5830 5830 5830 5830 5830 5829 5829 5829 5828 5828 5828 5827 5827 5827 5827 5827 5827 5827 5827 5827 5826 5825 5824 5824 5823 5822 5821 5819 5818 5817 5815 5813 5812
5824 5824 5825 5826 5826 5826 5826 5826 5826 5826 5826 5826 5825 5825 5825 5825 5825 5824 5824 5823 5823 5822 5822 5822 5822 5821 5821 5821 5821 5820 5819 5818 5817 5816 5815 5813 5812 5811 5809 5807 5806 5804 5802
5818 5818 5819 5820 5820 5821 5821 5821 5821 5821 5821 5821 5820 5820 5820 5820 5819 5819 5819 5819 5818 5818 5817 5817 5816 5816 5815 5814 5814 5813 5812 5811 5810 5808 5807 5805 5803 5801 5799 5798 5796 5794 5791
5811 5812 5813 5814 5814 5815 5815 5815 5815 5815 5816 5815 5815 5815 5814 5814 5814 5814 5813 5813 5813 5812 5811 5811 5810 5810 5809 5808 5807 5806 5805 5803 5802 5800 5798 5796 5794 5792 5790 5788 5786 5783 5781
5804 5805 5806 5807 5808 5808 5809 5809 5809 5810 5810 5809 5809 5809 5808 5808 5808 5808 5807 5807 5806 5806 5805 5805 5804 5803 5802 5801 5800 5799 5797 5796 5794 5792 5790 5788 5786 5783 5781 5778 5776 5772 5769
5796 5798 5799 5800 5800 5801 5802 5802 5802 5803 5803 5803 5803 5802 5802 5802 5801 5801 5800 5800 5799 5799 5798 5797 5797 5796 5794 5793 5792 5791 5789 5788 5786 5784 5781 5779 5776 5774 5771 5768 5765 5762 5758
5789 5790 5791 5792 5793 5794 5794 5795 5795 5795 5795 5796 5796 5796 5795 5795 5794 5794 5794 5793 5792 5792 5791 5790 5789 5788 5787 5786 5784 5782 5781 5779 5777 5774 5772 5769 5767 5764 5760 5757 5753 5750 5746
5781 5783 5784 5785 5785 5786 5787 5787 5788 5788 5788 5788 5788 5788 5788 5788 5787 5787 5787 5786 5786 5785 5784 5783 5782 5780 5779 5778 5776 5774 5772 5770 5767 5765 5762 5759 5757 5753 5749 5746 5742 5738 5733
5774 5775 5776 5777 5778 5779 5779 5780 5781 5781 5781 5781 5781 5781 5780 5780 5780 5780 5780 5779 5779 5778 5777 5775 5774 5772 5771 5769 5767 5765 5763 5761 5758 5755 5752 5749 5745 5742 5738 5734 5730 5725 5721
Wind_Speed
15 15 14 12 10 8 7 6 8 9 11 12 14 15 15 16 16 16 15 15 14 13 12 11 10 9 8 8 7 6 5 4 4 3 3 2 2 1 1 1 0 0 0
14 14 13 11 8 7 5 4 5 8 11 12 13 13 14 15 15 15 16 15 14 13 12 12 11 9 9 9 8 7 6 5 4 4 3 3 2 1 1 1 1 1 1
13 12 11 9 8 6 4 3 4 7 10 11 12 13 13 14 14 14 14 15 14 13 13 12 11 10 10 10 9 7 7 6 5 4 4 3 3 3 2 2 2 2 2
11 10 9 8 7 5 3 2 3 6 8 10 11 12 12 13 14 14 14 14 14 13 13 12 12 12 11 11 10 9 8 8 7 6 6 5 5 4 4 4 4 4 5
9 8 7 8 6 5 3 2 2 5 7 9 11 12 12 13 13 13 13 14 14 13 13 12 12 13 12 12 11 11 10 9 9 8 7 7 7 7 6 6 6 7 7
8 7 6 7 5 3 2 2 2 3 5 8 9 10 12 12 12 13 14 14 14 14 14 13 13 13 13 13 13 12 12 11 10 10 9 9 9 9 9 9 9 10 9
6 5 4 5 3 1 1 2 3 3 5 6 7 9 11 12 12 13 13 13 14 14 15 14 14 14 14 14 14 14 13 12 12 12 12 12 12 12 12 12 12 12 12
4 4 4 3 3 2 1 2 2 3 4 5 6 7 9 11 12 13 13 14 14 14 15 15 15 15 15 15 15 15 15 14 14 14 14 14 14 15 15 15 15 15 15
5 4 4 4 3 2 2 3 3 3 4 5 6 7 9 10 12 13 13 14 15 15 15 15 16 16 16 16 17 16 16 16 16 16 16 17 17 17 17 17 17 18 18
5 5 4 4 4 3 3 3 4 5 5 6 7 8 9 11 13 13 14 15 16 16 15 15 16 17 18 18 18 18 18 18 19 19 19 19 19 20 20 20 21 21 21
5 5 5 4 4 4 4 4 5 6 7 7 8 9 10 11 12 14 15 16 16 17 17 17 17 18 19 19 19 19 20 20 21 21 21 21 22 22 23 23 23 23 24
5 5 5 5 5 5 5 5 6 7 8 9 9 9 11 12 12 13 15 16 17 18 18 18 18 18 19 20 20 20 21 21 21 22 22 22 23 23 24 24 25 26 26
7 7 6 6 6 7 7 7 8 8 9 9 10 10 11 12 13 15 16 17 18 18 19 19 20 20 20 21 21 21 22 23 23 24 24 24 24 25 26 26 27 27 28
9 9 8 8 8 8 8 8 8 9 10 11 11 11 12 13 14 15 15 17 19 19 20 20 20 21 22 22 22 23 23 24 25 25 26 26 26 27 27 28 28 29 30
11 10 10 9 9 10 10 10 11 11 11 12 12 12 12 13 14 15 16 17 18 20 21 21 22 23 23 24 25 25 24 25 26 27 27 27 28 28 28 29 29 30 31
13 13 11 10 11 11 11 11 12 12 12 12 13 13 13 13 14 15 16 18 18 20 21 23 24 23 24 24 25 26 26 27 28 29 29 28 29 30 30 31 32 32 32
15 14 14 13 13 13 13 13 13 13 12 13 14 14 14 15 16 16 17 18 19 20 21 23 24 26 26 26 27 27 27 28 29 29 29 29 30 31 32 33 34 34 34
17 17 16 16 16 16 16 16 15 15 14 14 15 15 16 16 17 18 18 18 19 20 21 22 24 25 25 25 26 27 28 28 28 28 29 31 32 32 33 34 35 35 36
20 19 19 18 19 18 18 18 18 17 17 17 17 18 17 17 18 18 19 18 19 19 19 20 21 23 24 25 26 27 27 27 28 29 30 31 32 33 34 35 36 37 38
23 22 21 21 20 20 20 19 19 19 19 20 20 20 20 20 20 20 20 20 20 20 20 20 21 22 23 25 26 27 27 28 29 30 31 32 33 34 34 35 36 37 38
25 24 23 23 22 21 21 21 21 21 21 21 21 21 21 21 22 22 22 23 22 22 22 23 24 24 24 25 25 26 27 28 29 31 32 33 33 34 35 36 37 38 40
26 26 25 25 24 24 24 24 24 23 23 23 22 22 23 23 23 24 24 25 25 25 23 24 24 25 25 25 26 27 28 29 30 31 33 34 34 36 37 38 39 40 42
27 26 27 27 27 26 26 26 26 26 25 25 24 23 24 24 25 25 25 25 25 25 25 25 25 26 26 27 28 28 29 30 31 33 35 36 37 38 39 40 41 42 44
27 27 28 28 28 28 28 27 26 26 26 26 25 25 25 26 26 26 25 25 26 27 27 27 27 27 28 29 30 30 31 32 33 35 36 37 38 39 40 42 42 43 44
26 27 28 28 28 28 28 27 27 26 26 26 27 26 26 27 26 26 26 26 27 27 26 26 28 28 29 30 31 32 32 33 34 35 36 38 39 40 41 42 43 44 45
26 27 26 27 27 27 27 26 26 27 26 26 27 27 28 26 26 26 26 26 27 27 27 28 29 29 30 31 32 32 33 34 35 36 37 38 39 40 41 42 43 44 45
Wind_Direction
320 321 325 325 317 308 293 281 250 231 214 211 211 211 213 212 211 210 211 212 213 208 207 205 206 207 202 197 194 193 187 180 178 172 167 161 154 152 144 127 68 32 324
315 320 323 326 319 315 303 285 241 218 209 206 206 208 214 214 213 211 212 210 209 207 207 206 208 208 204 202 200 198 194 193 191 190 187 182 182 197 223 267 302 312 306
312 315 319 322 324 317 298 288 241 215 208 207 210 212 212 210 212 210 209 209 207 207 208 210 209 207 206 205 201 200 202 205 201 202 206 206 208 225 247 259 276 286 293
313 315 324 325 323 322 309 293 246 223 213 212 211 211 209 207 207 207 207 206 206 205 206 210 211 210 208 206 207 208 213 214 217 223 227 232 237 243 249 258 270 280 286
311 316 323 325 322 320 307 284 240 224 218 213 209 211 210 210 209 211 211 209 208 210 211 212 215 216 215 213 214 217 220 222 225 229 232 238 243 250 257 265 271 276 279
308 311 321 328 315 296 275 235 219 219 210 205 207 210 209 211 211 211 212 213 216 217 217 217 220 221 219 219 221 224 226 227 229 234 239 245 250 256 262 267 272 275 276
309 315 321 334 331 280 249 231 213 213 207 205 205 205 207 210 212 214 216 218 220 220 221 222 224 225 224 224 227 230 231 234 237 241 245 249 255 260 264 269 273 275 276
301 313 314 310 314 312 258 241 230 222 215 214 216 217 214 218 221 222 221 222 223 223 224 227 229 230 229 231 232 234 236 240 244 246 249 252 256 262 266 269 272 275 276
296 300 304 286 281 289 270 247 243 234 230 230 230 230 230 228 224 225 226 224 222 224 228 231 233 234 234 234 236 237 241 245 247 249 252 255 258 262 267 270 273 276 277
297 293 304 295 275 271 275 264 245 237 234 237 241 241 238 235 232 230 229 228 226 228 231 234 236 235 237 238 240 243 247 250 252 255 258 259 262 265 268 270 272 275 276
295 292 293 293 286 284 280 268 256 247 242 242 246 250 247 243 239 237 234 233 232 233 236 238 240 241 241 242 244 248 251 253 255 258 260 262 266 269 269 270 271 273 275
282 291 289 293 290 290 285 278 267 253 250 251 254 256 253 248 246 245 241 238 236 237 239 240 243 244 246 247 249 251 255 258 261 261 262 264 266 268 270 272 274 274 275
271 277 285 288 294 297 291 279 273 265 260 258 258 258 256 253 253 250 247 243 242 243 243 244 244 248 250 251 252 254 258 261 262 263 265 266 267 269 271 273 275 275 275
267 269 277 282 286 287 286 284 277 273 269 264 260 260 257 256 257 254 251 249 246 248 249 250 251 253 254 255 256 257 260 262 264 265 267 268 269 270 271 273 274 275 275
265 268 272 273 277 281 280 279 279 281 277 269 263 263 261 258 258 257 256 254 252 251 252 254 256 256 256 258 259 260 262 265 267 268 268 268 268 270 272 274 275 276 275
265 267 265 267 272 275 277 277 278 279 277 270 264 264 265 263 262 263 261 258 256 255 256 256 257 256 258 258 259 261 264 267 268 269 271 269 269 271 273 275 276 277 277
261 263 262 264 267 271 274 276 275 277 276 270 264 265 268 267 264 265 265 262 259 259 258 258 259 259 261 262 263 263 265 268 270 272 273 273 273 275 274 275 276 276 278
258 260 262 263 265 267 268 271 272 273 274 272 268 268 268 268 268 266 266 266 264 263 263 261 261 263 264 265 265 267 270 272 273 273 274 275 275 275 276 276 277 277 278
259 260 260 263 263 264 266 268 269 268 270 272 271 270 269 269 268 269 270 268 266 265 265 266 267 267 267 267 268 271 274 275 276 274 275 276 277 277 278 279 279 281 282
256 258 259 261 264 264 264 265 266 267 268 271 271 271 269 268 268 268 270 270 270 267 267 269 271 271 271 270 270 272 275 276 276 276 278 278 279 279 279 280 281 283 284
254 256 258 258 260 262 262 263 265 266 267 268 271 271 270 268 267 267 268 269 270 270 270 271 272 272 272 273 273 275 277 278 279 279 281 281 281 282 282 283 284 285 286
253 254 256 256 256 259 262 261 263 265 265 267 270 271 269 269 269 268 269 269 270 272 271 273 276 274 272 274 275 277 278 280 281 281 281 282 283 285 287 287 288 288 289
252 253 253 254 256 259 262 262 264 265 265 266 268 270 270 269 270 272 273 272 271 273 273 273 274 274 274 277 278 278 280 282 282 283 285 286 287 288 289 289 290 291 292
251 252 252 253 256 259 261 262 264 264 265 265 267 269 271 271 272 273 274 273 274 275 275 274 273 274 275 277 278 279 281 282 283 286 288 288 288 288 289 291 293 294 294
252 253 254 255 255 257 259 260 262 263 265 267 268 268 269 270 269 271 272 273 274 273 274 274 275 276 278 280 282 284 285 286 287 288 289 290 290 291 293 294 295 296 297
251 254 256 256 256 256 259 261 263 266 267 267 268 267 267 267 269 270 269 270 272 272 273 275 276 279 282 284 285 286 288 289 290 290 291 292 293 294 295 296 298 299 300